| time (UTC) | temp C | wind direction | speed KPH | gust KPH | rain 1hr cm | rain 24hr cm | rain mn cm | humidity % | barometer mb |
| 20260906212746 | 34 | 141 | 9.7 | 22.5 | 0.00 | 0.00 | 0.00 | 32 | 1015.9 |
| 20260906212242 | 35 | 134 | 11.3 | 19.3 | 0.00 | 0.00 | 0.00 | 32 | 1016.2 |
| 20260906211741 | 34 | 160 | 17.7 | 25.7 | 0.00 | 0.00 | 0.00 | 33 | 1016.1 |
| 20260906211237 | 35 | 160 | 14.5 | 25.7 | 0.00 | 0.00 | 0.00 | 31 | 1016.0 |
| 20260906210732 | 35 | 177 | 8.0 | 22.5 | 0.00 | 0.00 | 0.00 | 31 | 1015.9 |
| 20260906210227 | 35 | 163 | 6.4 | 16.1 | 0.00 | 0.00 | 0.00 | 34 | 1016.2 |
| 20260906205722 | 34 | 147 | 9.7 | 25.7 | 0.00 | 0.00 | 0.00 | 34 | 1016.5 |
| 20260906205219 | 35 | 158 | 16.1 | 22.5 | 0.00 | 0.00 | 0.00 | 33 | 1016.6 |
| 20260906204719 | 35 | 148 | 14.5 | 22.5 | 0.00 | 0.00 | 0.00 | 33 | 1016.3 |
| 20260906204218 | 35 | 134 | 6.4 | 25.7 | 0.00 | 0.00 | 0.00 | 33 | 1016.5 |
| 20260906203717 | 34 | 162 | 16.1 | 29.0 | 0.00 | 0.00 | 0.00 | 33 | 1016.5 |
| 20260906203213 | 35 | 142 | 16.1 | 24.1 | 0.00 | 0.00 | 0.00 | 35 | 1016.5 |
| 20260906202710 | 34 | 173 | 14.5 | 17.7 | 0.00 | 0.00 | 0.00 | 34 | 1016.5 |
| 20260906202208 | 34 | 154 | 22.5 | 27.4 | 0.00 | 0.00 | 0.00 | 35 | 1016.7 |
| 20260906201704 | 35 | 163 | 16.1 | 20.9 | 0.00 | 0.00 | 0.00 | 33 | 1016.6 |
| 20260906201203 | 34 | 158 | 14.5 | 27.4 | 0.00 | 0.00 | 0.00 | 35 | 1016.7 |
| 20260906200659 | 35 | 193 | 19.3 | 27.4 | 0.00 | 0.00 | 0.00 | 33 | 1016.8 |
| 20260906200155 | 33 | 142 | 12.9 | 20.9 | 0.00 | 0.00 | 0.00 | 37 | 1016.7 |
| 20260906195650 | 33 | 157 | 14.5 | 24.1 | 0.00 | 0.00 | 0.00 | 38 | 1017.0 |
| 20260906195147 | 33 | 155 | 4.8 | 17.7 | 0.00 | 0.00 | 0.00 | 36 | 1016.8 |
| 20260906194643 | 33 | 139 | 12.9 | 24.1 | 0.00 | 0.00 | 0.00 | 38 | 1017.0 |
| 20260906194137 | 32 | 152 | 8.0 | 25.7 | 0.00 | 0.00 | 0.00 | 39 | 1017.1 |
| 20260906193633 | 33 | 159 | 9.7 | 22.5 | 0.00 | 0.00 | 0.00 | 39 | 1017.1 |
| 20260906193128 | 33 | 172 | 16.1 | 20.9 | 0.00 | 0.00 | 0.00 | 37 | 1017.1 |
| 20260906192624 | 34 | 151 | 20.9 | 29.0 | 0.00 | 0.00 | 0.00 | 36 | 1017.2 |
| 20260906192122 | 33 | 149 | 8.0 | 20.9 | 0.00 | 0.00 | 0.00 | 36 | 1017.2 |
| 20260906191618 | 33 | 169 | 9.7 | 17.7 | 0.00 | 0.00 | 0.00 | 36 | 1017.2 |
| 20260906191117 | 33 | 160 | 12.9 | 24.1 | 0.00 | 0.00 | 0.00 | 36 | 1017.3 |
| 20260906190611 | 33 | 149 | 12.9 | 24.1 | 0.00 | 0.00 | 0.00 | 37 | 1017.5 |
| 20260906190106 | 32 | 110 | 11.3 | 14.5 | 0.00 | 0.00 | 0.00 | 38 | 1017.3 |
| 20260906185604 | 33 | 149 | 16.1 | 29.0 | 0.00 | 0.00 | 0.00 | 38 | 1017.6 |
| 20260906185104 | 33 | 156 | 19.3 | 22.5 | 0.00 | 0.00 | 0.00 | 36 | 1017.8 |
| 20260906184559 | 33 | 156 | 24.1 | 30.6 | 0.00 | 0.00 | 0.00 | 37 | 1017.8 |
| 20260906184054 | 34 | 168 | 14.5 | 29.0 | 0.00 | 0.00 | 0.00 | 36 | 1018.0 |
| 20260906183550 | 33 | 162 | 24.1 | 25.7 | 0.00 | 0.00 | 0.00 | 37 | 1017.7 |
| 20260906183046 | 33 | 188 | 20.9 | 20.9 | 0.00 | 0.00 | 0.00 | 37 | 1017.8 |
| 20260906182541 | 32 | 133 | 12.9 | 19.3 | 0.00 | 0.00 | 0.00 | 38 | 1017.9 |
| 20260906182037 | 33 | 154 | 12.9 | 22.5 | 0.00 | 0.00 | 0.00 | 39 | 1018.4 |
| 20260906181532 | 32 | 141 | 9.7 | 14.5 | 0.00 | 0.00 | 0.00 | 40 | 1018.2 |
| 20260906181027 | 32 | 153 | 14.5 | 29.0 | 0.00 | 0.00 | 0.00 | 40 | 1018.5 |
| 20260906180522 | 33 | 148 | 9.7 | 20.9 | 0.00 | 0.00 | 0.00 | 39 | 1018.4 |
| 20260906180021 | 33 | 160 | 17.7 | 27.4 | 0.00 | 0.00 | 0.00 | 39 | 1018.5 |
| 20260906175515 | 33 | 168 | 11.3 | 22.5 | 0.00 | 0.00 | 0.00 | 39 | 1018.5 |
| 20260906175015 | 33 | 163 | 14.5 | 24.1 | 0.00 | 0.00 | 0.00 | 40 | 1018.5 |
| 20260906174508 | 32 | 132 | 14.5 | 19.3 | 0.00 | 0.00 | 0.00 | 40 | 1018.7 |
| 20260906174003 | 32 | 161 | 9.7 | 20.9 | 0.00 | 0.00 | 0.00 | 40 | 1018.9 |
| 20260906173458 | 32 | 109 | 8.0 | 24.1 | 0.00 | 0.00 | 0.00 | 41 | 1018.7 |
| 20260906172957 | 32 | 154 | 16.1 | 32.2 | 0.00 | 0.00 | 0.00 | 42 | 1018.8 |
| 20260906172454 | 33 | 157 | 20.9 | 30.6 | 0.00 | 0.00 | 0.00 | 40 | 1018.8 |
| 20260906171949 | 32 | 148 | 11.3 | 17.7 | 0.00 | 0.00 | 0.00 | 41 | 1018.7 |
| 20260906171443 | 32 | 150 | 16.1 | 25.7 | 0.00 | 0.00 | 0.00 | 43 | 1019.0 |
| 20260906170939 | 32 | 152 | 22.5 | 25.7 | 0.00 | 0.00 | 0.00 | 43 | 1019.1 |
| 20260906170435 | 32 | 155 | 17.7 | 24.1 | 0.00 | 0.00 | 0.00 | 42 | 1018.9 |
| 20260906165932 | 32 | 168 | 14.5 | 24.1 | 0.00 | 0.00 | 0.00 | 44 | 1018.9 |
| 20260906165431 | 32 | 174 | 12.9 | 24.1 | 0.00 | 0.00 | 0.00 | 44 | 1019.0 |
| 20260906164926 | 32 | 160 | 11.3 | 20.9 | 0.00 | 0.00 | 0.00 | 44 | 1019.0 |
| 20260906164424 | 31 | 180 | 20.9 | 27.4 | 0.00 | 0.00 | 0.00 | 45 | 1018.9 |
| 20260906163921 | 31 | 154 | 14.5 | 24.1 | 0.00 | 0.00 | 0.00 | 45 | 1019.0 |
| 20260906163411 | 31 | 137 | 6.4 | 30.6 | 0.00 | 0.00 | 0.00 | 45 | 1019.0 |
| 20260906162909 | 31 | 191 | 17.7 | 24.1 | 0.00 | 0.00 | 0.00 | 45 | 1018.9 |
| 20260906162408 | 31 | 186 | 14.5 | 24.1 | 0.00 | 0.00 | 0.00 | 47 | 1019.1 |
| 20260906161903 | 32 | 200 | 20.9 | 22.5 | 0.00 | 0.00 | 0.00 | 45 | 1019.0 |
| 20260906161402 | 31 | 173 | 14.5 | 25.7 | 0.00 | 0.00 | 0.00 | 47 | 1018.8 |
| 20260906160901 | 30 | 165 | 12.9 | 22.5 | 0.00 | 0.00 | 0.00 | 51 | 1019.0 |
| 20260906160354 | 30 | 196 | 17.7 | 19.3 | 0.00 | 0.00 | 0.00 | 50 | 1018.8 |
| 20260906155853 | 30 | 191 | 12.9 | 22.5 | 0.00 | 0.00 | 0.00 | 50 | 1018.8 |
| 20260906155346 | 30 | 225 | 17.7 | 25.7 | 0.00 | 0.00 | 0.00 | 52 | 1018.9 |
| 20260906154838 | 31 | 171 | 19.3 | 25.7 | 0.00 | 0.00 | 0.00 | 50 | 1018.8 |
| 20260906154332 | 30 | 215 | 20.9 | 27.4 | 0.00 | 0.00 | 0.00 | 51 | 1018.7 |
| 20260906153830 | 30 | 203 | 14.5 | 25.7 | 0.00 | 0.00 | 0.00 | 51 | 1018.6 |
| 20260906153324 | 30 | 175 | 14.5 | 25.7 | 0.00 | 0.00 | 0.00 | 52 | 1018.7 |
| 20260906152820 | 29 | 218 | 9.7 | 25.7 | 0.00 | 0.00 | 0.00 | 53 | 1018.9 |
| 20260906152315 | 29 | 199 | 17.7 | 22.5 | 0.00 | 0.00 | 0.00 | 54 | 1018.8 |
| 20260906151814 | 28 | 209 | 22.5 | 25.7 | 0.00 | 0.00 | 0.00 | 55 | 1018.6 |
| 20260906151310 | 28 | 191 | 14.5 | 25.7 | 0.00 | 0.00 | 0.00 | 56 | 1018.9 |
| 20260906150805 | 29 | 193 | 14.5 | 24.1 | 0.00 | 0.00 | 0.00 | 55 | 1018.7 |
| 20260906150301 | 28 | 172 | 14.5 | 22.5 | 0.00 | 0.00 | 0.00 | 56 | 1018.6 |
| 20260906145800 | 28 | 186 | 19.3 | 22.5 | 0.00 | 0.00 | 0.00 | 56 | 1018.6 |
| 20260906145258 | 28 | 177 | 17.7 | 20.9 | 0.00 | 0.00 | 0.00 | 57 | 1018.6 |
| 20260906144754 | 27 | 200 | 14.5 | 22.5 | 0.00 | 0.00 | 0.00 | 57 | 1018.7 |
| 20260906144248 | 27 | 192 | 17.7 | 24.1 | 0.00 | 0.00 | 0.00 | 57 | 1018.5 |
| 20260906143748 | 27 | 203 | 20.9 | 24.1 | 0.00 | 0.00 | 0.00 | 58 | 1018.7 |
| 20260906143245 | 27 | 215 | 20.9 | 20.9 | 0.00 | 0.00 | 0.00 | 59 | 1018.8 |
| 20260906142744 | 27 | 217 | 20.9 | 20.9 | 0.00 | 0.00 | 0.00 | 58 | 1018.7 |
| 20260906142240 | 27 | 203 | 20.9 | 24.1 | 0.00 | 0.00 | 0.00 | 58 | 1018.6 |
| 20260906141738 | 26 | 203 | 16.1 | 19.3 | 0.00 | 0.00 | 0.00 | 59 | 1018.4 |
| 20260906141234 | 26 | 181 | 17.7 | 19.3 | 0.00 | 0.00 | 0.00 | 59 | 1018.4 |
| 20260906140733 | 26 | 215 | 19.3 | 24.1 | 0.00 | 0.00 | 0.00 | 60 | 1018.4 |
| 20260906140228 | 26 | 189 | 17.7 | 20.9 | 0.00 | 0.00 | 0.00 | 60 | 1018.2 |
| 20260906135724 | 26 | 194 | 14.5 | 17.7 | 0.00 | 0.00 | 0.00 | 60 | 1018.2 |
| 20260906135221 | 25 | 191 | 16.1 | 20.9 | 0.00 | 0.00 | 0.00 | 60 | 1018.1 |
| 20260906134716 | 25 | 189 | 16.1 | 20.9 | 0.00 | 0.00 | 0.00 | 61 | 1018.2 |
| 20260906134211 | 25 | 197 | 14.5 | 19.3 | 0.00 | 0.00 | 0.00 | 62 | 1018.0 |
| 20260906133706 | 25 | 203 | 8.0 | 16.1 | 0.00 | 0.00 | 0.00 | 62 | 1018.0 |
| 20260906133156 | 25 | 179 | 14.5 | 19.3 | 0.00 | 0.00 | 0.00 | 62 | 1017.7 |
| 20260906132651 | 24 | 204 | 9.7 | 17.7 | 0.00 | 0.00 | 0.00 | 63 | 1017.8 |
| 20260906132147 | 24 | 196 | 8.0 | 14.5 | 0.00 | 0.00 | 0.00 | 63 | 1017.8 |
| 20260906131642 | 24 | 192 | 12.9 | 14.5 | 0.00 | 0.00 | 0.00 | 63 | 1017.8 |
| 20260906131137 | 23 | 190 | 12.9 | 16.1 | 0.00 | 0.00 | 0.00 | 64 | 1017.6 |
| 20260906130633 | 23 | 180 | 9.7 | 17.7 | 0.00 | 0.00 | 0.00 | 64 | 1017.9 |
| 20260906130128 | 23 | 197 | 8.0 | 14.5 | 0.00 | 0.00 | 0.00 | 65 | 1017.5 |
| 20260906125625 | 23 | 193 | 14.5 | 17.7 | 0.00 | 0.00 | 0.00 | 65 | 1017.6 |
| 20260906125124 | 23 | 195 | 9.7 | 14.5 | 0.00 | 0.00 | 0.00 | 66 | 1017.7 |
| 20260906124620 | 23 | 187 | 11.3 | 12.9 | 0.00 | 0.00 | 0.00 | 66 | 1017.8 |
| 20260906124115 | 22 | 173 | 8.0 | 12.9 | 0.00 | 0.00 | 0.00 | 66 | 1017.2 |
| 20260906123614 | 22 | 172 | 11.3 | 14.5 | 0.00 | 0.00 | 0.00 | 66 | 1017.5 |
| 20260906123109 | 22 | 167 | 8.0 | 12.9 | 0.00 | 0.00 | 0.00 | 66 | 1017.5 |
| 20260906122609 | 22 | 166 | 9.7 | 11.3 | 0.00 | 0.00 | 0.00 | 66 | 1017.2 |
| 20260906122104 | 23 | 163 | 12.9 | 14.5 | 0.00 | 0.00 | 0.00 | 65 | 1017.2 |
| 20260906121600 | 23 | 167 | 11.3 | 14.5 | 0.00 | 0.00 | 0.00 | 65 | 1017.2 |
| 20260906121057 | 23 | 165 | 8.0 | 14.5 | 0.00 | 0.00 | 0.00 | 65 | 1017.3 |
| 20260906120551 | 23 | 172 | 8.0 | 17.7 | 0.00 | 0.00 | 0.00 | 65 | 1017.2 |
| 20260906120049 | 23 | 173 | 11.3 | 16.1 | 0.00 | 0.00 | 0.00 | 65 | 1017.3 |
| 20260906115548 | 23 | 168 | 8.0 | 12.9 | 0.00 | 0.00 | 0.00 | 66 | 1017.0 |
| 20260906115044 | 23 | 171 | 8.0 | 12.9 | 0.00 | 0.00 | 0.00 | 66 | 1017.1 |
| 20260906114538 | 23 | 180 | 9.7 | 12.9 | 0.00 | 0.00 | 0.00 | 65 | 1017.0 |
| 20260906114034 | 23 | 187 | 11.3 | 14.5 | 0.00 | 0.00 | 0.00 | 65 | 1017.1 |
| 20260906113533 | 23 | 177 | 11.3 | 17.7 | 0.00 | 0.00 | 0.00 | 65 | 1017.0 |
| 20260906113028 | 23 | 175 | 12.9 | 12.9 | 0.00 | 0.00 | 0.00 | 65 | 1016.7 |
| 20260906112523 | 23 | 178 | 12.9 | 14.5 | 0.00 | 0.00 | 0.00 | 66 | 1016.8 |
| 20260906112020 | 23 | 158 | 11.3 | 14.5 | 0.00 | 0.00 | 0.00 | 66 | 1016.9 |
| 20260906111519 | 23 | 165 | 8.0 | 16.1 | 0.00 | 0.00 | 0.00 | 65 | 1017.0 |
| 20260906111014 | 23 | 166 | 8.0 | 12.9 | 0.00 | 0.00 | 0.00 | 65 | 1016.9 |
| 20260906110509 | 22 | 174 | 6.4 | 11.3 | 0.00 | 0.00 | 0.00 | 65 | 1016.9 |
| 20260906110008 | 22 | 168 | 8.0 | 8.0 | 0.00 | 0.00 | 0.00 | 66 | 1017.0 |
| 20260906105504 | 22 | 157 | 6.4 | 9.7 | 0.00 | 0.00 | 0.00 | 66 | 1017.0 |
| 20260906104959 | 23 | 163 | 6.4 | 8.0 | 0.00 | 0.00 | 0.00 | 65 | 1017.0 |
| 20260906104458 | 23 | 158 | 4.8 | 6.4 | 0.00 | 0.00 | 0.00 | 65 | 1017.0 |
| 20260906103957 | 23 | 156 | 6.4 | 8.0 | 0.00 | 0.00 | 0.00 | 64 | 1016.9 |
| 20260906103456 | 23 | 156 | 6.4 | 8.0 | 0.00 | 0.00 | 0.00 | 65 | 1017.0 |
| 20260906102951 | 23 | 163 | 4.8 | 9.7 | 0.00 | 0.00 | 0.00 | 64 | 1016.9 |
| 20260906102450 | 23 | 162 | 9.7 | 9.7 | 0.00 | 0.00 | 0.00 | 65 | 1016.8 |
| 20260906101944 | 23 | 169 | 8.0 | 9.7 | 0.00 | 0.00 | 0.00 | 65 | 1016.8 |
| 20260906101440 | 22 | 162 | 8.0 | 9.7 | 0.00 | 0.00 | 0.00 | 65 | 1016.8 |
| 20260906100935 | 22 | 162 | 6.4 | 8.0 | 0.00 | 0.00 | 0.00 | 66 | 1016.6 |
| 20260906100430 | 22 | 152 | 4.8 | 8.0 | 0.00 | 0.00 | 0.00 | 67 | 1016.5 |
| 20260906095930 | 22 | 165 | 4.8 | 8.0 | 0.00 | 0.00 | 0.00 | 66 | 1016.6 |
| 20260906095426 | 22 | 175 | 4.8 | 8.0 | 0.00 | 0.00 | 0.00 | 66 | 1016.6 |
| 20260906094926 | 22 | 193 | 6.4 | 8.0 | 0.00 | 0.00 | 0.00 | 67 | 1016.6 |
| 20260906094420 | 22 | 154 | 8.0 | 9.7 | 0.00 | 0.00 | 0.00 | 67 | 1016.6 |
| 20260906093916 | 22 | 165 | 9.7 | 11.3 | 0.00 | 0.00 | 0.00 | 66 | 1016.6 |
| 20260906093413 | 22 | 151 | 8.0 | 9.7 | 0.00 | 0.00 | 0.00 | 66 | 1016.8 |
| 20260906092906 | 22 | 167 | 6.4 | 9.7 | 0.00 | 0.00 | 0.00 | 65 | 1016.6 |
| 20260906092401 | 22 | 179 | 6.4 | 8.0 | 0.00 | 0.00 | 0.00 | 66 | 1016.7 |
| 20260906091856 | 22 | 175 | 4.8 | 8.0 | 0.00 | 0.00 | 0.00 | 65 | 1016.8 |
| 20260906091352 | 22 | 171 | 4.8 | 4.8 | 0.00 | 0.00 | 0.00 | 66 | 1016.7 |
| 20260906090848 | 23 | 175 | 3.2 | 4.8 | 0.00 | 0.00 | 0.00 | 65 | 1016.7 |
| 20260906090347 | 23 | 181 | 4.8 | 6.4 | 0.00 | 0.00 | 0.00 | 63 | 1016.8 |
| 20260906085842 | 23 | 164 | 4.8 | 8.0 | 0.00 | 0.00 | 0.00 | 62 | 1016.6 |
| 20260906085341 | 23 | 156 | 8.0 | 8.0 | 0.00 | 0.00 | 0.00 | 62 | 1016.8 |
| 20260906084831 | 23 | 162 | 6.4 | 8.0 | 0.00 | 0.00 | 0.00 | 61 | 1016.8 |
| 20260906084331 | 23 | 154 | 6.4 | 9.7 | 0.00 | 0.00 | 0.00 | 61 | 1016.8 |
| 20260906083825 | 23 | 151 | 6.4 | 9.7 | 0.00 | 0.00 | 0.00 | 62 | 1016.6 |
| 20260906083320 | 23 | 169 | 6.4 | 6.4 | 0.00 | 0.00 | 0.00 | 63 | 1016.7 |
| 20260906082815 | 23 | 173 | 4.8 | 8.0 | 0.00 | 0.00 | 0.00 | 62 | 1016.9 |
| 20260906082310 | 23 | 171 | 6.4 | 9.7 | 0.00 | 0.00 | 0.00 | 62 | 1016.6 |
| 20260906081805 | 23 | 158 | 8.0 | 9.7 | 0.00 | 0.00 | 0.00 | 62 | 1016.8 |
| 20260906081256 | 24 | 157 | 6.4 | 9.7 | 0.00 | 0.00 | 0.00 | 61 | 1016.9 |
| 20260906080752 | 23 | 158 | 8.0 | 11.3 | 0.00 | 0.00 | 0.00 | 61 | 1016.6 |
| 20260906080248 | 23 | 156 | 6.4 | 6.4 | 0.00 | 0.00 | 0.00 | 63 | 1016.6 |
| 20260906075747 | 23 | 151 | 4.8 | 6.4 | 0.00 | 0.00 | 0.00 | 63 | 1016.8 |
| 20260906075242 | 23 | 193 | 3.2 | 6.4 | 0.00 | 0.00 | 0.00 | 62 | 1016.7 |
| 20260906074737 | 23 | 196 | 4.8 | 8.0 | 0.00 | 0.00 | 0.00 | 62 | 1016.7 |
| 20260906074237 | 24 | 154 | 8.0 | 11.3 | 0.00 | 0.00 | 0.00 | 60 | 1016.8 |
| 20260906073736 | 24 | 156 | 8.0 | 9.7 | 0.00 | 0.00 | 0.00 | 60 | 1017.0 |
| 20260906073231 | 24 | 130 | 9.7 | 9.7 | 0.00 | 0.00 | 0.00 | 60 | 1017.0 |
| 20260906072727 | 25 | 141 | 6.4 | 9.7 | 0.00 | 0.00 | 0.00 | 59 | 1016.9 |
| 20260906072223 | 25 | 154 | 4.8 | 12.9 | 0.00 | 0.00 | 0.00 | 58 | 1016.9 |
| 20260906071718 | 25 | 151 | 6.4 | 12.9 | 0.00 | 0.00 | 0.00 | 58 | 1016.8 |
| 20260906071218 | 25 | 156 | 9.7 | 12.9 | 0.00 | 0.00 | 0.00 | 58 | 1017.0 |
| 20260906070715 | 25 | 151 | 11.3 | 14.5 | 0.00 | 0.00 | 0.00 | 58 | 1016.9 |
| 20260906070210 | 25 | 145 | 11.3 | 17.7 | 0.00 | 0.00 | 0.00 | 57 | 1016.9 |
| 20260906065704 | 25 | 154 | 6.4 | 16.1 | 0.00 | 0.00 | 0.00 | 57 | 1016.8 |
| 20260906065200 | 25 | 157 | 11.3 | 14.5 | 0.00 | 0.00 | 0.00 | 57 | 1016.8 |
| 20260906064655 | 25 | 145 | 11.3 | 14.5 | 0.00 | 0.00 | 0.00 | 56 | 1016.9 |
| 20260906064150 | 25 | 148 | 9.7 | 16.1 | 0.00 | 0.00 | 0.00 | 56 | 1016.8 |
| 20260906063645 | 25 | 154 | 9.7 | 16.1 | 0.00 | 0.00 | 0.00 | 55 | 1017.0 |
| 20260906063141 | 26 | 155 | 9.7 | 17.7 | 0.00 | 0.00 | 0.00 | 55 | 1017.0 |
| 20260906062637 | 26 | 140 | 9.7 | 17.7 | 0.00 | 0.00 | 0.00 | 55 | 1017.0 |
| 20260906062135 | 26 | 158 | 11.3 | 19.3 | 0.00 | 0.00 | 0.00 | 54 | 1016.9 |
| 20260906061632 | 26 | 149 | 12.9 | 19.3 | 0.00 | 0.00 | 0.00 | 54 | 1017.0 |
| 20260906061131 | 26 | 157 | 14.5 | 19.3 | 0.00 | 0.00 | 0.00 | 54 | 1016.9 |
| 20260906060627 | 26 | 151 | 12.9 | 20.9 | 0.00 | 0.00 | 0.00 | 54 | 1016.9 |
| 20260906060120 | 26 | 142 | 11.3 | 20.9 | 0.00 | 0.00 | 0.00 | 54 | 1017.0 |
| 20260906055615 | 26 | 154 | 11.3 | 19.3 | 0.00 | 0.00 | 0.00 | 54 | 1016.9 |
| 20260906055109 | 26 | 155 | 12.9 | 17.7 | 0.00 | 0.00 | 0.00 | 54 | 1016.9 |
| 20260906054605 | 26 | 150 | 11.3 | 20.9 | 0.00 | 0.00 | 0.00 | 54 | 1017.1 |
| 20260906054100 | 26 | 153 | 14.5 | 19.3 | 0.00 | 0.00 | 0.00 | 54 | 1016.9 |
| 20260906053556 | 26 | 145 | 9.7 | 20.9 | 0.00 | 0.00 | 0.00 | 54 | 1017.0 |
| 20260906053052 | 26 | 152 | 14.5 | 17.7 | 0.00 | 0.00 | 0.00 | 54 | 1017.0 |
| 20260906052547 | 26 | 160 | 11.3 | 20.9 | 0.00 | 0.00 | 0.00 | 53 | 1017.0 |
| 20260906052044 | 27 | 153 | 14.5 | 17.7 | 0.00 | 0.00 | 0.00 | 53 | 1017.0 |
| 20260906051539 | 27 | 148 | 12.9 | 20.9 | 0.00 | 0.00 | 0.00 | 52 | 1017.0 |
| 20260906051034 | 27 | 155 | 14.5 | 17.7 | 0.00 | 0.00 | 0.00 | 52 | 1016.8 |
| 20260906050530 | 27 | 148 | 11.3 | 17.7 | 0.00 | 0.00 | 0.00 | 52 | 1017.1 |
| 20260906050025 | 27 | 137 | 14.5 | 17.7 | 0.00 | 0.00 | 0.00 | 51 | 1017.0 |
| 20260906045523 | 27 | 141 | 12.9 | 17.7 | 0.00 | 0.00 | 0.00 | 51 | 1017.1 |
| 20260906045019 | 27 | 140 | 9.7 | 19.3 | 0.00 | 0.00 | 0.00 | 51 | 1016.9 |
| 20260906044514 | 27 | 142 | 12.9 | 19.3 | 0.00 | 0.00 | 0.00 | 51 | 1016.8 |
| 20260906044010 | 27 | 154 | 14.5 | 20.9 | 0.00 | 0.00 | 0.00 | 50 | 1016.8 |
| 20260906043505 | 27 | 154 | 12.9 | 19.3 | 0.00 | 0.00 | 0.00 | 50 | 1016.9 |
| 20260906043001 | 27 | 150 | 14.5 | 20.9 | 0.00 | 0.00 | 0.00 | 50 | 1016.9 |
| 20260906042500 | 27 | 155 | 12.9 | 19.3 | 0.00 | 0.00 | 0.00 | 50 | 1016.6 |
| 20260906041959 | 28 | 146 | 11.3 | 22.5 | 0.00 | 0.00 | 0.00 | 49 | 1016.8 |
| 20260906041456 | 28 | 149 | 17.7 | 24.1 | 0.00 | 0.00 | 0.00 | 49 | 1017.1 |
| 20260906040955 | 28 | 151 | 11.3 | 20.9 | 0.00 | 0.00 | 0.00 | 49 | 1017.1 |
| 20260906040450 | 28 | 156 | 12.9 | 17.7 | 0.00 | 0.00 | 0.00 | 49 | 1017.1 |
| 20260906035946 | 28 | 156 | 9.7 | 20.9 | 0.00 | 0.00 | 0.00 | 49 | 1017.1 |
| 20260906035441 | 28 | 159 | 16.1 | 19.3 | 0.00 | 0.00 | 0.00 | 48 | 1017.2 |
| 20260906034937 | 28 | 156 | 12.9 | 16.1 | 0.00 | 0.00 | 0.00 | 47 | 1017.2 |
| 20260906034431 | 28 | 159 | 14.5 | 14.5 | 0.00 | 0.00 | 0.00 | 47 | 1017.2 |
| 20260906033926 | 28 | 151 | 12.9 | 17.7 | 0.00 | 0.00 | 0.00 | 46 | 1017.1 |
| 20260906033421 | 29 | 155 | 9.7 | 17.7 | 0.00 | 0.00 | 0.00 | 45 | 1017.2 |
| 20260906032917 | 29 | 146 | 14.5 | 22.5 | 0.00 | 0.00 | 0.00 | 45 | 1017.1 |
| 20260906032413 | 29 | 146 | 9.7 | 17.7 | 0.00 | 0.00 | 0.00 | 45 | 1017.2 |
| 20260906031907 | 29 | 159 | 11.3 | 14.5 | 0.00 | 0.00 | 0.00 | 45 | 1016.8 |
| 20260906031402 | 30 | 154 | 11.3 | 20.9 | 0.00 | 0.00 | 0.00 | 44 | 1016.7 |
| 20260906030852 | 30 | 149 | 14.5 | 22.5 | 0.00 | 0.00 | 0.00 | 44 | 1016.6 |
| 20260906030346 | 29 | 154 | 14.5 | 19.3 | 0.00 | 0.00 | 0.00 | 46 | 1016.6 |
| 20260906025841 | 29 | 183 | 12.9 | 19.3 | 0.00 | 0.00 | 0.00 | 46 | 1016.5 |
| 20260906025335 | 29 | 175 | 9.7 | 17.7 | 0.00 | 0.00 | 0.00 | 46 | 1016.2 |
| 20260906024833 | 30 | 155 | 20.9 | 22.5 | 0.00 | 0.00 | 0.00 | 44 | 1016.6 |
| 20260906024328 | 30 | 173 | 14.5 | 29.0 | 0.00 | 0.00 | 0.00 | 42 | 1016.3 |
| 20260906023823 | 29 | 151 | 12.9 | 17.7 | 0.00 | 0.00 | 0.00 | 45 | 1016.5 |
| 20260906023319 | 28 | 219 | 14.5 | 17.7 | 0.00 | 0.00 | 0.00 | 47 | 1016.6 |
| 20260906022814 | 28 | 184 | 6.4 | 16.1 | 0.00 | 0.00 | 0.00 | 48 | 1016.5 |
| 20260906022309 | 29 | 213 | 11.3 | 17.7 | 0.00 | 0.00 | 0.00 | 45 | 1016.5 |
| 20260906021804 | 30 | 138 | 9.7 | 12.9 | 0.00 | 0.00 | 0.00 | 44 | 1016.2 |
| 20260906021258 | 30 | 161 | 8.0 | 12.9 | 0.00 | 0.00 | 0.00 | 44 | 1016.2 |
| 20260906020752 | 30 | 147 | 11.3 | 14.5 | 0.00 | 0.00 | 0.00 | 43 | 1016.2 |
| 20260906020247 | 30 | 151 | 6.4 | 11.3 | 0.00 | 0.00 | 0.00 | 43 | 1016.1 |
| 20260906015747 | 30 | 141 | 9.7 | 14.5 | 0.00 | 0.00 | 0.00 | 43 | 1016.0 |
| 20260906015245 | 30 | 140 | 11.3 | 16.1 | 0.00 | 0.00 | 0.00 | 44 | 1015.7 |
| 20260906014740 | 30 | 148 | 6.4 | 16.1 | 0.00 | 0.00 | 0.00 | 43 | 1015.6 |
| 20260906014236 | 30 | 144 | 6.4 | 17.7 | 0.00 | 0.00 | 0.00 | 43 | 1015.5 |
| 20260906013732 | 30 | 128 | 11.3 | 14.5 | 0.00 | 0.00 | 0.00 | 43 | 1015.5 |
| 20260906013231 | 31 | 140 | 12.9 | 17.7 | 0.00 | 0.00 | 0.00 | 43 | 1015.1 |
| 20260906012727 | 31 | 131 | 9.7 | 12.9 | 0.00 | 0.00 | 0.00 | 43 | 1015.2 |
| 20260906012222 | 31 | 114 | 6.4 | 19.3 | 0.00 | 0.00 | 0.00 | 43 | 1015.2 |
| 20260906011717 | 31 | 161 | 11.3 | 16.1 | 0.00 | 0.00 | 0.00 | 43 | 1015.0 |
| 20260906011212 | 31 | 114 | 12.9 | 17.7 | 0.00 | 0.00 | 0.00 | 42 | 1015.0 |
| 20260906010707 | 31 | 132 | 11.3 | 19.3 | 0.00 | 0.00 | 0.00 | 42 | 1015.0 |
| 20260906010203 | 31 | 140 | 6.4 | 11.3 | 0.00 | 0.00 | 0.00 | 42 | 1015.0 |
| 20260906005702 | 31 | 106 | 6.4 | 16.1 | 0.00 | 0.00 | 0.00 | 42 | 1015.1 |
| 20260906005157 | 31 | 134 | 9.7 | 16.1 | 0.00 | 0.00 | 0.00 | 42 | 1015.1 |
| 20260906004656 | 32 | 153 | 9.7 | 16.1 | 0.00 | 0.00 | 0.00 | 41 | 1014.9 |
| 20260906004151 | 32 | 146 | 9.7 | 16.1 | 0.00 | 0.00 | 0.00 | 41 | 1015.0 |
| 20260906003646 | 32 | 148 | 12.9 | 14.5 | 0.00 | 0.00 | 0.00 | 41 | 1015.0 |
| 20260906003142 | 32 | 138 | 12.9 | 17.7 | 0.00 | 0.00 | 0.00 | 40 | 1015.1 |
| 20260906002637 | 32 | 142 | 8.0 | 17.7 | 0.00 | 0.00 | 0.00 | 40 | 1014.8 |
| 20260906002131 | 32 | 146 | 6.4 | 19.3 | 0.00 | 0.00 | 0.00 | 39 | 1014.7 |
| 20260906001627 | 32 | 147 | 8.0 | 20.9 | 0.00 | 0.00 | 0.00 | 39 | 1014.9 |
| 20260906001126 | 33 | 139 | 11.3 | 20.9 | 0.00 | 0.00 | 0.00 | 38 | 1014.7 |
| 20260906000622 | 33 | 129 | 11.3 | 20.9 | 0.00 | 0.00 | 0.00 | 38 | 1014.9 |
| 20260906000118 | 33 | 153 | 14.5 | 27.4 | 0.00 | 0.00 | 0.00 | 38 | 1014.6 |
| 20260905235616 | 33 | 152 | 12.9 | 27.4 | 0.00 | 0.00 | 0.00 | 38 | 1014.3 |
| 20260905235111 | 33 | 142 | 12.9 | 25.7 | 0.00 | 0.00 | 0.00 | 37 | 1014.5 |
| 20260905234607 | 33 | 146 | 17.7 | 27.4 | 0.00 | 0.00 | 0.00 | 37 | 1014.3 |
| 20260905234101 | 33 | 147 | 17.7 | 25.7 | 0.00 | 0.00 | 0.00 | 37 | 1014.3 |
| 20260905233556 | 34 | 138 | 22.5 | 33.8 | 0.00 | 0.00 | 0.00 | 37 | 1014.1 |
| 20260905233051 | 35 | 145 | 17.7 | 25.7 | 0.00 | 0.00 | 0.00 | 36 | 1014.1 |
| 20260905232546 | 35 | 138 | 9.7 | 17.7 | 0.00 | 0.00 | 0.00 | 35 | 1014.1 |
| 20260905232042 | 35 | 143 | 12.9 | 24.1 | 0.00 | 0.00 | 0.00 | 33 | 1014.1 |
| 20260905231537 | 35 | 134 | 16.1 | 22.5 | 0.00 | 0.00 | 0.00 | 34 | 1013.9 |
| 20260905231033 | 36 | 154 | 16.1 | 17.7 | 0.00 | 0.00 | 0.00 | 32 | 1014.0 |
| 20260905230532 | 36 | 155 | 9.7 | 17.7 | 0.00 | 0.00 | 0.00 | 33 | 1013.9 |
| 20260905230030 | 36 | 168 | 12.9 | 17.7 | 0.00 | 0.00 | 0.00 | 32 | 1014.1 |
| 20260905225525 | 36 | 165 | 17.7 | 22.5 | 0.00 | 0.00 | 0.00 | 31 | 1013.9 |
| 20260905225020 | 36 | 168 | 11.3 | 19.3 | 0.00 | 0.00 | 0.00 | 33 | 1014.0 |
| 20260905224515 | 36 | 169 | 19.3 | 22.5 | 0.00 | 0.00 | 0.00 | 32 | 1014.0 |
| 20260905224015 | 35 | 153 | 8.0 | 17.7 | 0.00 | 0.00 | 0.00 | 34 | 1014.1 |
| 20260905223512 | 35 | 163 | 9.7 | 20.9 | 0.00 | 0.00 | 0.00 | 34 | 1014.0 |
| 20260905223007 | 36 | 138 | 11.3 | 16.1 | 0.00 | 0.00 | 0.00 | 34 | 1014.2 |
| 20260905222502 | 35 | 206 | 14.5 | 19.3 | 0.00 | 0.00 | 0.00 | 34 | 1014.2 |
| 20260905221957 | 35 | 161 | 14.5 | 20.9 | 0.00 | 0.00 | 0.00 | 33 | 1013.9 |
| 20260905221454 | 36 | 139 | 16.1 | 25.7 | 0.00 | 0.00 | 0.00 | 32 | 1014.1 |
| 20260905220950 | 35 | 162 | 14.5 | 22.5 | 0.00 | 0.00 | 0.00 | 33 | 1014.1 |
| 20260905220446 | 36 | 161 | 19.3 | 25.7 | 0.00 | 0.00 | 0.00 | 33 | 1014.1 |
| 20260905215944 | 36 | 166 | 16.1 | 24.1 | 0.00 | 0.00 | 0.00 | 33 | 1014.2 |
| 20260905215440 | 36 | 171 | 9.7 | 20.9 | 0.00 | 0.00 | 0.00 | 33 | 1014.5 |
| 20260905214937 | 36 | 156 | 16.1 | 27.4 | 0.00 | 0.00 | 0.00 | 33 | 1014.3 |
| 20260905214432 | 36 | 161 | 14.5 | 29.0 | 0.00 | 0.00 | 0.00 | 33 | 1014.3 |
| 20260905213931 | 35 | 161 | 11.3 | 22.5 | 0.00 | 0.00 | 0.00 | 34 | 1014.3 |
| 20260905213428 | 36 | 154 | 11.3 | 22.5 | 0.00 | 0.00 | 0.00 | 33 | 1014.5 |
| 20260905212923 | 37 | 182 | 12.9 | 29.0 | 0.00 | 0.00 | 0.00 | 32 | 1014.5 |